Location: *
(45.9500°N, 9.0833°E)
Time: 20:12:54
(UTC+00:00)

Tiros 1 - Pass Details

Date: 20 June 2021
Orbit: 630 x 664 km, 48.4° (Epoch: 05 August)

Event Time Altitude Azimuth Distance (km) Brightness Sun altitude
Rises 12:55:02 0° 282° (WNW) 2,939 10.7 61.1°
Reaches altitude 10° 12:57:22 10° 285° (WNW) 2,035 10.1 60.8°
Maximum altitude 13:02:03 70° 10° (N) 689 8.1 60.2°
Drops below altitude 10° 13:06:47 10° 94° (E) 2,055 9.6 59.6°
Sets 13:09:09 0° 97° (E) 2,970 10.3 59.3°
